Regional Weather Roundup
Issued by NWS

Home | Current Version | Previous Version | Graphics & Text | Print | Product List | Glossary On
Versions: 1 2 3 4 5 6 7 8 9 10 11 12 13 14 15 16 17 18 19 20 21 22 23 24 25 26 27 28 29 30 31 32 33 34 35 36 37 38 39 40 41 42 43 44 45 46 47 48 49 50
000
ASUS43 KLSX 190957
RWRMO

WEATHER SUMMARY FOR MISSOURI
NATIONAL WEATHER SERVICE SPRINGFIELD MO
500 AM CDT TUE SEP 19 2017

NOTE: "FAIR" INDICATES FEW OR NO CLOUDS BELOW 12,000 FEET WITH NO
       SIGNIFICANT WEATHER AND/OR OBSTRUCTIONS TO VISIBILITY.
       CURRENT SKY AND/OR WEATHER CONDITIONS ARE NOT AVAILABLE FOR
       CHILLICOTHE AND FARMINGTON.

MOZ001>031-035>038-043-044-053-054-191100-
...NORTHERN AND WESTERN MISSOURI...

CITY           SKY/WX    TMP DP  RH WIND       PRES   REMARKS
KANSAS CTY INT TSTM      69  67  93 S8        29.89S
LEE`S SUMMIT   FOG       66  66 100 E5        29.90F VSB 1/4
ST JOSEPH      MOCLDY    66  66 100 SE6       29.87F FOG
CHILLICOTHE      N/A     63  63 100 SE3       29.92S

$$
MOZ066>068-077>081-088>096-101>105-191100-
...SOUTHWEST MISSOURI...

CITY           SKY/WX    TMP DP  RH WIND       PRES   REMARKS
SPRINGFIELD    CLEAR     66  66 100 SE5       29.93S FOG
JOPLIN         CLEAR     66  66 100 SE6       29.90F FOG

$$
MOZ032>034-039>042-045>050-055>058-069>072-191100-
...CENTRAL MISSOURI...

CITY           SKY/WX    TMP DP  RH WIND       PRES   REMARKS
COLUMBIA       FOG       64  64 100 CALM      29.94S VSB 1/4
JEFFERSON CITY FOG       64  62  93 SE5       29.93S VSB 1/2
ROLLA          FOG       63  63 100 CALM      29.96R VSB 1/4
SEDALIA        CLEAR     63  63 100 E5        29.93S
WARRENSBURG    FOG       63  63 100 CALM      29.90F VSB 1/4

$$
MOZ051-052-059>065-191100-
...EAST CENTRAL MISSOURI...

CITY           SKY/WX    TMP DP  RH WIND       PRES   REMARKS
ST LOUIS INTL  FOG       67  67 100 CALM      29.94S VSB 1/2
SPIRIT OF STL  FOG       66  66 100 CALM      29.93S VSB 1/4

$$
MOZ072>076-082>087-097>100-106>115-191100-
...SOUTH CENTRAL AND SOUTHEAST MISSOURI...

CITY           SKY/WX    TMP DP  RH WIND       PRES   REMARKS
CAPE GIRARDEAU FOG       65  64  97 SW3       29.92S VSB 1/2
FARMINGTON     CLEAR     64  64 100 CALM      29.96S FOG
POPLAR BLUFF   CLEAR     67  67 100 CALM      29.92F FOG
WEST PLAINS    FOG       63  62  97 CALM      29.97S VSB 1/2

$$



USA.gov is the U.S. government's official web portal to all federal, state and local government web resources and services.